Temperature
12 12 12 12 12 12 12 12 12 12 12 12 12 12 12 12 12 12 12 12 12 12 12 12 12 12 12 12 12 12 12 12 12 12 12 11 11 11 11 11 11 11 11
12 11 11 11 11 11 12 11 11 11 11 11 11 11 11 11 11 11 12 12 12 12 12 12 12 12 12 12 11 11 11 11 11 11 11 11 11 11 11 10 10 10 10
11 11 11 11 11 11 11 11 11 11 11 11 11 11 11 11 11 11 11 11 11 11 11 11 11 11 11 11 11 11 11 11 11 11 11 11 11 11 10 10 10 10 10
11 11 11 11 11 11 11 11 11 11 11 11 11 11 11 11 11 11 11 11 11 11 11 11 11 11 11 11 11 11 11 11 11 11 11 11 10 10 10 10 10 10 9
11 10 10 10 10 10 10 10 10 10 10 10 10 10 10 10 10 10 10 10 10 10 10 11 11 11 11 11 10 10 10 10 10 10 10 10 10 10 10 9 9 9 9
10 10 10 10 10 10 10 10 10 10 10 10 10 10 10 10 10 10 10 10 10 10 10 10 10 10 10 10 10 10 10 10 10 10 10 10 10 10 9 9 9 9 9
10 10 10 10 10 10 10 10 9 9 9 9 9 9 9 9 10 10 10 10 10 10 10 10 10 10 10 10 10 10 10 10 10 10 10 9 9 9 9 9 9 9 8
9 9 9 9 9 9 9 9 9 9 9 9 9 9 9 9 9 9 9 9 9 9 9 9 10 9 9 10 10 10 10 9 9 9 9 9 9 9 9 9 9 8 8
9 9 9 9 9 9 9 9 9 9 9 9 9 9 9 9 9 9 9 9 9 9 9 9 9 9 9 9 9 9 9 9 9 9 9 9 9 8 8 8 8 8 8
8 8 8 9 9 8 8 8 9 8 9 8 8 8 9 9 8 8 8 8 9 9 9 9 9 9 9 9 9 9 9 9 9 9 9 8 8 8 8 8 8 8 7
8 8 8 8 8 8 8 8 8 8 8 8 8 8 8 8 8 8 8 8 8 8 8 8 8 8 8 8 9 9 8 8 8 8 8 8 8 8 8 8 8 7 7
7 7 7 8 8 8 8 8 8 8 8 8 8 8 8 8 8 8 8 8 8 8 8 8 8 8 8 8 8 8 8 8 8 8 8 8 8 8 8 7 7 7 7
7 7 7 7 7 7 7 7 7 7 7 7 7 8 8 8 8 8 8 7 7 7 7 7 7 7 7 7 8 8 8 8 8 8 8 8 8 7 7 7 7 7 7
7 7 7 7 7 7 7 7 7 7 7 7 7 7 7 7 7 7 7 7 6 6 7 7 7 7 7 7 7 7 7 7 7 7 7 7 7 7 7 7 7 6 6
6 6 6 6 6 6 6 6 6 7 7 7 7 7 7 7 7 7 7 6 6 6 6 6 6 7 7 7 7 7 7 7 7 7 7 7 7 7 7 6 6 6 6
5 5 5 6 6 6 6 6 6 6 6 6 6 6 6 6 6 6 6 6 6 6 6 6 6 6 6 6 6 6 6 6 6 6 6 6 6 6 6 6 6 6 5
5 5 5 5 5 5 5 5 5 5 5 6 6 6 6 6 6 6 6 6 6 6 6 6 6 6 6 6 6 6 6 6 6 6 6 5 5 5 5 5 5 5 5
4 4 4 4 4 5 5 5 5 5 5 5 5 5 5 5 5 5 5 5 5 5 5 5 5 5 5 5 5 5 5 5 5 5 5 5 5 5 5 5 5 4 4
4 3 3 4 4 4 4 4 4 4 4 4 4 5 5 5 5 5 5 5 5 5 5 4 5 5 5 4 4 4 4 4 4 4 4 4 4 4 4 4 4 4 4
3 3 3 3 3 3 3 4 4 4 4 4 4 4 4 4 4 4 4 4 4 4 4 4 4 4 4 4 4 4 4 4 4 4 4 4 4 4 4 4 3 3 3
2 2 2 3 3 3 3 3 3 3 3 3 3 3 3 3 3 4 4 4 4 3 3 3 3 3 3 3 3 3 3 3 3 3 3 3 3 3 3 3 3 3 3
2 2 2 2 2 2 2 2 2 2 2 3 3 3 3 3 3 3 3 3 3 3 3 3 3 3 3 3 3 3 3 3 2 2 2 3 2 2 2 2 2 2 2
1 1 1 1 1 2 2 2 2 2 2 2 2 2 2 2 2 3 2 2 2 2 2 2 2 2 2 2 2 2 2 2 2 2 2 2 2 2 2 2 2 2 2
0 0 1 1 1 1 1 1 1 1 1 1 1 2 2 2 2 2 2 2 2 2 2 2 2 2 2 2 2 2 2 1 1 1 1 1 1 1 1 1 1 1 1
-0 -0 0 0 0 1 1 1 1 1 1 1 1 1 1 1 1 1 1 1 1 1 1 1 1 1 1 1 1 1 1 1 1 1 1 1 1 0 0 0 0 0 0
-1 -0 -0 -0 0 0 0 0 0 0 0 0 1 1 1 1 1 1 1 1 1 1 1 1 1 1 1 1 1 1 1 1 0 0 0 0 0 -0 -1 -0 -0 -0 -1
Wind_Speed
1 2 2 3 3 4 4 3 2 3 3 3 4 4 4 5 5 6 8 9 9 7 6 6 5 5 6 7 7 7 7 7 6 6 6 7 7 7 7 7 7 7 7
1 1 1 2 2 3 3 3 3 2 2 3 3 3 3 4 5 6 8 8 8 7 6 5 5 5 6 6 6 6 6 6 6 6 6 6 7 7 6 6 6 6 6
2 1 1 1 2 3 3 2 2 2 3 3 2 2 3 3 4 5 7 7 6 6 5 4 4 5 6 6 6 6 5 5 5 6 5 5 6 6 6 5 5 5 4
2 2 1 1 2 3 2 2 1 2 2 2 2 1 2 3 3 4 5 6 6 5 5 4 4 4 5 5 5 5 5 5 5 6 6 5 6 6 5 4 4 4 3
2 2 1 1 2 2 2 1 1 2 2 2 2 1 1 2 2 3 4 4 5 6 5 5 5 5 4 4 5 5 5 5 6 6 6 6 5 5 5 5 4 4 3
3 3 2 2 2 1 1 1 1 1 2 2 2 2 1 1 2 2 2 3 3 4 5 5 5 4 4 4 5 6 6 6 7 6 6 6 5 5 5 5 5 4 3
3 2 2 2 2 2 2 1 1 2 2 2 2 1 1 0 1 1 2 2 2 2 3 4 4 4 4 4 5 5 6 7 7 7 7 6 6 5 5 6 5 5 4
3 3 2 2 3 2 2 2 2 1 1 2 2 2 1 1 1 1 1 2 2 2 2 2 2 3 4 3 3 5 6 6 7 7 7 7 6 6 6 5 5 5 5
4 3 3 2 2 3 3 3 3 3 3 2 1 2 2 2 1 1 2 2 2 2 1 1 2 3 3 4 3 5 6 7 7 7 8 8 7 6 6 6 6 6 6
4 4 4 3 3 2 3 4 3 3 4 3 2 1 1 2 2 1 1 1 2 2 2 1 1 2 3 3 3 4 6 7 7 7 7 8 8 7 7 6 6 5 6
4 4 5 3 3 3 3 3 3 3 3 3 3 1 1 1 1 2 2 2 2 2 2 2 2 2 3 4 4 5 6 7 8 8 7 8 7 7 7 7 6 6 6
2 3 4 3 3 3 3 4 3 4 3 4 3 3 2 2 2 2 2 2 2 2 2 2 2 3 3 4 5 6 6 7 7 8 8 8 8 7 7 7 7 7 7
2 3 2 3 3 3 3 3 3 4 4 4 4 3 3 2 2 2 2 2 2 2 2 2 2 3 4 4 5 6 6 7 8 8 9 9 9 8 8 8 7 7 7
3 3 3 3 3 3 3 3 2 3 3 3 4 3 2 2 2 2 2 2 2 2 2 3 2 3 4 4 5 6 6 7 8 9 9 9 9 9 8 8 8 8 7
3 3 3 3 3 3 4 3 3 3 3 3 3 3 3 2 2 2 2 3 3 3 4 3 2 2 3 4 5 5 6 7 8 9 9 9 9 8 8 8 8 8 7
2 3 3 3 3 3 3 3 3 3 3 3 3 3 3 2 2 2 3 3 3 4 4 2 3 2 3 4 6 5 5 6 7 8 9 9 9 9 8 8 8 8 7
2 3 4 3 3 3 3 3 3 4 4 3 3 4 4 3 3 3 3 3 3 3 4 3 2 2 3 3 3 4 5 5 6 8 9 9 9 9 8 8 8 8 8
2 2 3 3 3 3 3 3 4 4 4 5 4 4 4 3 3 3 3 3 4 4 4 4 3 2 3 3 3 3 3 4 4 6 8 9 9 8 8 8 8 8 8
1 1 2 3 3 3 3 4 4 4 4 4 4 4 4 4 4 3 3 4 3 3 3 3 3 2 2 2 2 2 2 2 3 4 5 6 7 8 8 8 7 7 7
1 1 1 2 3 2 3 3 3 3 3 4 4 4 4 5 5 5 4 4 3 3 3 4 3 2 2 2 2 2 2 2 2 3 4 4 5 6 7 7 7 6 6
2 1 1 1 1 2 2 3 2 3 3 3 3 3 3 4 5 5 5 4 4 4 4 4 4 3 3 2 3 2 3 2 2 2 1 2 2 3 3 5 5 5 5
1 1 1 1 1 2 2 3 3 2 3 3 3 3 3 4 5 6 6 6 6 6 5 4 4 5 5 4 3 3 3 2 3 2 1 2 2 2 2 3 4 5 5
2 1 1 1 1 1 2 3 4 3 3 3 3 2 2 3 3 3 4 5 5 7 7 5 5 6 5 4 4 4 3 3 3 2 1 2 1 2 2 3 4 4 4
2 2 2 2 2 2 3 3 3 2 2 2 3 3 3 3 3 3 3 3 3 3 4 4 4 4 4 3 4 4 3 2 1 1 1 2 2 2 2 2 4 4 4
3 2 2 2 2 2 3 3 3 1 2 2 2 2 3 3 4 4 3 3 2 2 2 4 4 3 3 3 3 2 2 2 2 2 1 2 2 1 1 1 3 4 3
3 2 2 2 2 2 3 3 3 2 2 2 2 2 3 3 4 4 3 3 4 3 2 1 1 1 1 2 3 3 4 3 2 2 2 2 1 1 1 1 1 2 2
Wind_Direction
133 137 148 148 157 156 157 165 170 157 144 139 136 139 131 132 125 115 120 130 131 131 138 144 145 142 139 135 130 127 124 122 126 126 125 120 117 113 104 95 94 93 92
122 136 136 147 161 163 163 167 165 154 133 119 111 107 107 117 123 123 126 131 136 137 142 153 157 158 154 150 144 139 137 132 130 130 133 133 129 124 116 109 105 99 92
131 134 132 138 137 150 149 147 131 118 120 111 123 102 97 101 110 116 124 130 137 146 151 155 157 168 166 161 157 155 154 151 147 144 141 145 145 140 133 128 122 115 105
126 103 115 145 132 122 123 136 145 115 109 118 121 129 102 108 107 108 118 128 135 143 156 163 171 169 171 175 172 170 170 166 163 157 155 154 154 154 152 154 145 141 131
130 111 94 92 110 108 117 141 140 142 138 133 125 101 92 95 98 104 104 118 135 141 148 162 170 176 179 185 193 187 183 181 176 170 167 166 163 168 170 174 172 168 156
153 137 131 128 110 125 137 148 152 138 137 136 122 101 92 98 86 99 120 119 134 151 157 159 169 183 189 198 207 205 199 193 185 180 180 177 174 181 188 190 189 184 183
163 149 149 143 145 159 161 148 138 135 134 124 107 97 2 131 158 153 125 129 133 145 153 151 161 171 178 203 214 214 207 203 199 195 191 188 187 189 197 203 204 208 213
171 173 169 170 167 164 164 159 156 165 178 166 150 147 183 283 276 208 165 166 162 133 129 160 156 161 169 174 203 216 217 213 211 207 201 196 195 196 202 212 215 220 229
178 175 180 176 178 175 179 181 178 176 188 213 196 162 164 202 222 231 207 186 175 159 155 170 188 193 188 184 196 218 220 217 218 223 217 211 206 204 210 216 221 228 236
178 177 185 188 187 189 190 189 191 186 179 195 226 244 206 155 150 181 248 222 206 195 196 192 205 202 197 186 199 214 219 217 221 229 226 220 214 216 221 224 225 233 242
177 183 186 186 187 189 196 196 196 199 195 194 193 201 243 263 185 173 222 234 236 225 209 200 200 202 205 204 212 217 218 222 229 233 234 231 224 223 231 234 235 239 246
178 185 190 188 188 189 200 203 199 202 206 205 202 194 188 191 202 188 207 217 231 246 227 207 197 198 207 209 213 216 217 221 226 233 238 238 234 232 237 237 239 243 249
197 192 191 196 192 195 200 197 191 202 205 206 206 208 205 217 209 196 191 211 236 254 240 228 212 204 211 212 214 216 222 224 227 235 237 240 242 238 239 241 247 252 256
210 194 192 198 203 199 198 191 193 201 201 204 206 202 212 226 217 204 195 191 232 253 236 235 228 204 200 209 222 224 231 232 232 237 240 243 247 244 244 244 250 255 258
202 197 197 194 200 200 196 189 197 204 200 206 205 201 207 221 215 216 205 191 195 229 242 229 218 224 211 216 225 225 228 234 238 238 242 242 244 247 242 243 248 252 253
197 189 200 196 200 204 197 190 202 209 205 216 208 199 211 215 211 205 207 217 211 213 238 228 222 228 217 228 227 227 234 240 241 243 241 237 239 241 242 244 246 247 246
200 201 202 201 204 208 204 198 202 204 205 217 221 210 218 212 212 216 213 217 220 212 237 254 247 224 212 221 227 234 237 231 237 242 241 238 240 241 241 243 243 243 244
217 209 209 209 208 212 210 208 212 211 211 215 221 215 221 217 216 219 212 219 225 217 220 239 247 238 232 217 215 225 246 239 235 242 239 237 239 241 241 240 241 242 244
269 222 214 213 210 215 216 216 218 218 221 219 218 218 218 211 220 222 217 219 225 230 222 223 234 239 238 222 230 248 254 257 250 238 234 235 238 239 242 242 242 246 250
297 257 235 229 221 219 226 224 222 223 224 227 226 223 222 217 218 218 224 221 218 218 217 219 224 229 231 218 204 219 253 250 258 248 239 241 241 240 242 242 242 251 259
302 285 263 255 239 223 221 218 225 233 229 234 235 233 235 234 234 230 228 218 212 217 220 223 227 230 221 204 216 217 230 238 262 234 213 250 240 233 242 243 239 245 253
299 293 262 254 253 264 261 255 251 243 241 235 240 242 241 241 242 240 237 229 221 217 219 222 232 228 229 223 213 205 209 223 262 225 199 258 217 233 234 222 233 239 245
309 295 285 275 266 280 289 277 264 250 239 234 232 241 255 254 246 228 228 233 235 235 231 226 225 230 230 220 208 218 223 236 246 208 167 264 256 253 235 225 232 236 233
298 280 277 272 264 277 286 278 275 259 238 242 237 234 235 241 241 223 212 218 226 234 234 232 225 231 229 214 206 214 216 237 286 284 186 243 256 255 256 220 229 227 225
301 283 266 259 257 267 277 275 269 231 231 250 247 236 232 228 237 228 213 212 231 256 254 228 220 209 209 203 179 151 173 191 251 261 227 206 237 270 283 262 218 220 221
285 281 279 273 265 267 274 274 268 219 223 240 243 236 235 232 237 229 217 207 221 234 213 203 215 215 185 180 193 191 195 200 227 244 223 185 222 216 272 275 236 216 220
Height
1525 1526 1527 1529 1530 1531 1533 1534 1536 1537 1539 1541 1542 1544 1545 1547 1548 1549 1550 1552 1553 1554 1555 1556 1557 1558 1559 1560 1561 1562 1563 1563 1564 1564 1565 1565 1566 1566 1567 1567 1567 1568 1567
1522 1524 1525 1527 1528 1530 1531 1532 1534 1536 1537 1539 1540 1542 1543 1545 1546 1548 1549 1550 1551 1553 1554 1555 1556 1557 1558 1559 1560 1561 1561 1562 1563 1563 1564 1565 1565 1565 1566 1566 1566 1567 1567
1521 1522 1523 1524 1526 1528 1529 1531 1532 1534 1535 1537 1538 1540 1542 1543 1545 1546 1547 1548 1549 1551 1552 1553 1554 1555 1557 1558 1558 1559 1560 1561 1561 1562 1563 1563 1564 1564 1565 1565 1565 1565 1565
1518 1520 1521 1522 1524 1525 1527 1528 1530 1532 1533 1535 1536 1538 1540 1541 1543 1544 1545 1546 1547 1549 1550 1551 1553 1554 1555 1556 1557 1558 1558 1559 1560 1561 1561 1562 1562 1563 1563 1564 1564 1564 1564
1516 1517 1519 1520 1522 1523 1525 1527 1528 1530 1531 1533 1534 1536 1538 1539 1540 1542 1543 1544 1545 1547 1548 1549 1550 1551 1553 1554 1555 1556 1556 1557 1558 1559 1559 1560 1560 1561 1561 1562 1562 1563 1563
1513 1515 1516 1518 1519 1521 1522 1524 1526 1528 1529 1531 1532 1534 1536 1537 1538 1539 1541 1542 1543 1544 1546 1547 1548 1548 1550 1551 1552 1553 1554 1555 1556 1557 1557 1558 1558 1559 1559 1560 1560 1561 1561
1510 1512 1514 1515 1517 1518 1520 1521 1523 1525 1527 1529 1531 1532 1534 1535 1536 1537 1538 1539 1540 1542 1543 1544 1545 1546 1547 1548 1550 1551 1551 1552 1553 1554 1554 1555 1555 1556 1557 1558 1558 1558 1559
1507 1509 1511 1512 1514 1516 1517 1519 1521 1522 1524 1526 1528 1530 1531 1533 1533 1534 1535 1537 1538 1539 1540 1541 1542 1543 1544 1545 1546 1547 1548 1549 1550 1551 1552 1552 1553 1553 1554 1555 1555 1556 1556
1504 1506 1508 1509 1511 1513 1514 1516 1518 1520 1521 1523 1525 1527 1528 1529 1530 1532 1532 1534 1535 1536 1537 1538 1539 1540 1541 1542 1543 1544 1545 1546 1547 1548 1548 1549 1550 1550 1551 1552 1552 1553 1553
1501 1503 1505 1506 1508 1510 1511 1513 1515 1517 1519 1520 1522 1524 1526 1526 1528 1528 1530 1531 1532 1533 1534 1535 1536 1537 1538 1538 1539 1540 1541 1542 1543 1544 1545 1546 1546 1547 1548 1548 1549 1550 1550
1498 1499 1501 1503 1504 1506 1508 1510 1511 1513 1515 1517 1519 1520 1522 1523 1525 1525 1526 1528 1529 1530 1530 1531 1532 1533 1534 1535 1536 1536 1537 1538 1540 1540 1541 1542 1542 1543 1544 1545 1545 1546 1547
1493 1496 1498 1499 1501 1503 1504 1506 1507 1509 1512 1513 1515 1517 1518 1520 1521 1522 1523 1524 1525 1526 1527 1528 1528 1529 1530 1531 1532 1533 1534 1535 1536 1536 1537 1538 1539 1539 1540 1540 1541 1542 1543
1489 1492 1494 1496 1497 1499 1501 1502 1504 1506 1508 1509 1511 1513 1515 1516 1518 1519 1520 1521 1521 1522 1523 1524 1525 1526 1526 1527 1528 1529 1530 1531 1531 1532 1533 1534 1535 1535 1535 1536 1537 1538 1538
1486 1488 1490 1492 1494 1496 1497 1498 1500 1502 1504 1505 1507 1509 1510 1512 1514 1515 1516 1518 1518 1518 1519 1520 1521 1522 1523 1523 1524 1525 1525 1526 1527 1528 1528 1529 1530 1530 1531 1532 1532 1533 1533
1483 1485 1486 1488 1490 1491 1493 1495 1496 1498 1499 1501 1502 1504 1506 1507 1509 1510 1512 1514 1515 1514 1514 1515 1516 1518 1518 1519 1520 1520 1521 1521 1522 1523 1524 1524 1525 1526 1526 1527 1528 1528 1529
1480 1481 1483 1484 1486 1488 1489 1490 1492 1493 1495 1496 1498 1500 1501 1503 1504 1505 1507 1509 1510 1511 1510 1510 1512 1513 1514 1515 1515 1516 1516 1517 1517 1518 1519 1519 1520 1521 1521 1522 1523 1523 1523
1477 1478 1479 1480 1482 1483 1485 1486 1487 1489 1490 1492 1493 1495 1496 1498 1499 1500 1502 1503 1505 1506 1505 1506 1507 1508 1509 1510 1511 1511 1512 1512 1512 1513 1513 1514 1514 1515 1516 1517 1517 1518 1518
1473 1474 1476 1477 1478 1480 1481 1482 1483 1485 1486 1488 1489 1490 1491 1493 1494 1495 1497 1498 1499 1501 1501 1501 1502 1503 1504 1505 1506 1506 1506 1507 1507 1508 1508 1509 1509 1510 1511 1511 1512 1512 1512
1469 1471 1472 1473 1474 1476 1477 1478 1479 1481 1482 1483 1485 1486 1487 1488 1489 1490 1491 1493 1494 1495 1496 1496 1496 1498 1499 1500 1500 1501 1501 1502 1502 1503 1503 1504 1504 1505 1506 1506 1506 1507 1507
1465 1467 1468 1469 1470 1471 1473 1474 1475 1476 1477 1479 1480 1481 1482 1483 1484 1485 1486 1487 1488 1489 1490 1491 1491 1492 1494 1494 1495 1496 1496 1497 1497 1498 1498 1499 1500 1500 1501 1501 1501 1502 1502
1462 1463 1464 1465 1466 1468 1469 1470 1471 1472 1473 1474 1475 1476 1477 1479 1479 1481 1481 1482 1483 1484 1485 1486 1486 1487 1488 1489 1490 1491 1491 1491 1492 1493 1494 1494 1495 1495 1496 1496 1496 1496 1497
1459 1459 1460 1461 1463 1464 1465 1466 1467 1468 1469 1469 1470 1471 1473 1474 1475 1476 1476 1477 1478 1479 1480 1480 1481 1481 1482 1484 1485 1486 1486 1486 1487 1489 1489 1489 1490 1490 1491 1491 1491 1491 1492
1455 1456 1457 1458 1459 1460 1461 1462 1463 1464 1465 1465 1466 1467 1468 1469 1470 1471 1471 1472 1473 1474 1475 1476 1476 1476 1478 1479 1480 1481 1482 1482 1482 1484 1485 1484 1485 1486 1486 1486 1487 1487 1487
1452 1453 1453 1455 1455 1456 1457 1458 1459 1460 1461 1461 1462 1463 1464 1464 1465 1466 1467 1467 1468 1469 1470 1471 1471 1472 1473 1474 1475 1477 1477 1478 1478 1479 1480 1480 1480 1481 1482 1482 1482 1482 1482
1449 1450 1451 1451 1452 1453 1454 1455 1456 1456 1456 1457 1458 1459 1460 1460 1462 1462 1463 1463 1463 1464 1466 1467 1467 1467 1468 1470 1471 1472 1473 1473 1473 1474 1476 1476 1476 1476 1477 1477 1478 1478 1477
1446 1447 1448 1448 1449 1450 1451 1452 1452 1452 1452 1453 1454 1455 1456 1457 1458 1458 1459 1459 1459 1460 1461 1462 1463 1463 1464 1465 1466 1468 1468 1469 1469 1470 1471 1472 1471 1472 1472 1472 1473 1473 1473